DECAYED

STARLINK-2286, 48033 (Decayed)

Orbit data source: Space-Track

STARLINK-2286, 48033 was a payload satellite owned by SpaceX/Seattle (US) in LEO that was launched on Wed, 24 Mar 2021 UTC via an FALCON 9 launch vehicle from the Air Force Eastern Test Range (AFETR). Payload-class satellites include a variety of spacecraft equipped with specific instruments for various scientific and technological missions. These include communications satellites like Starlink; space stations such as the ISS; scientific satellites like the Hubble; Earth observation satellites from companies like Planet Labs, Umbra, and HawkEye 360; GPS; miniature CubeSats for education and research; and military/defense satellites.

Not visible in the next 10 days
Identifier
48033, 2021-024BJ
Orbit
Decayed
Country
Flag of USUS
Related business
Manufacturer
SpaceX/Seattle
Mission
Decayed Commercial Communications
Bus & Motor
STARLINK, Unknown motor
Mass
260 kg wet, ~248 kg dry
Launch date (UTC)
2021-03-24 (5 years ago)
Launch vehicle
FALCON 9
Launch site
Air Force Eastern Test Range (AFETR)
Object type
Payload
Rocket body
Debris
Shape & HBR
Box + 1 Pan, 10.1 m
Radar Cross Section
13.562 m², Large (>1 m²)

Expand to show TLE details & history
Last TLE update: 1 year ago

TLE from 1 year ago
0 STARLINK-2286
1 48033U 21024BJ  25104.25449251  .07613351  12168-4  10397-2 0  9991
2 48033  53.0335 343.4671 0009188 253.3710 212.0582 16.34332187224820
Epoch: 2025-04-14T06:06Z
TLE epoch observation values (Epoch: 2025-04-14T06:06:28.152Z)
Latitude
50.5455°
Longitude
163.77504°
Altitude
191.918 km
Speed
7.795 km/s
True Right ascension
06h 32m 15s
True Declination
50° 21' 43"
Sunlit
Object was in daylight at epoch
Visualization orbit readout
Latitude
Unknown
Longitude
Unknown
Altitude
Unknown
Speed
Unknown
Apparent Right ascension
Unknown
Apparent Declination
Unknown
Sunlit
N/A
Visualization observer readout
Local Sidereal Time
20:39:17
Azimuth
Unknown
Elevation
Unknown
Doppler factor
Unknown
Orbital elements
Apogee altitude
187.239 km
Perigee altitude
175.185 km
Semi-major axis
6,559.349 km
Eccentricity
0.00092
Inclination
53.0335°
RAAN
343.4671°
Arg. of periapsis
253.371°
True anomaly
212.00237°
Mean anomaly
212.0582°
Eccentric anomaly
212.03028°
Mean motion
4.08556 °/min
Orbital period
88.12 mins
BSTAR
0.0010397
Loading maneuver chart data...
Computing Atmospheric mass density...

Documentation

Showing up to 5 results
|